STARLINK-2460

Last updated on Sat May 08 2021 00:02:04 GMT+0000 (Coordinated Universal Time)

1 48120U 21027AE 21127.58334491 .00056823 00000-0 40656-3 0 9995 2 48120 53.0472 191.7339 0003430 12.8541 295.8923 15.73190228 1773

Satellite not in orbit